Time,TemperatureF,DewpointF,PressureIn,WindDirection,WindDirectionDegrees,WindSpeedMPH,WindSpeedGustMPH,Humidity,HourlyPrecipIn,Conditions,Clouds,dailyrainin,SoftwareType,DateUTC
2013-09-10 00:01:00,63.5,59.6,30.14,WNW,288,0.0,1.0,87,0.00,,,0.00,VWS V14.01,2013-09-10 04:01:00,
2013-09-10 00:02:00,63.5,59.6,30.14,WNW,288,0.0,0.0,87,0.00,,,0.00,VWS V14.01,2013-09-10 04:02:00,
2013-09-10 00:07:00,63.5,59.6,30.14,WNW,288,0.0,0.0,87,0.00,,,0.00,VWS V14.01,2013-09-10 04:07:00,
2013-09-10 00:12:00,63.6,59.7,30.14,WNW,288,0.0,0.0,87,0.00,,,0.00,VWS V14.01,2013-09-10 04:12:00,
2013-09-10 00:17:00,63.6,59.7,30.14,West,263,0.0,2.0,87,0.00,,,0.00,VWS V14.01,2013-09-10 04:17:00,
2013-09-10 00:22:00,63.6,59.7,30.14,NNE,32,0.0,0.0,87,0.00,,,0.00,VWS V14.01,2013-09-10 04:22:00,
2013-09-10 00:27:00,63.6,60.0,30.14,East,79,0.0,2.0,88,0.00,,,0.00,VWS V14.01,2013-09-10 04:27:00,
2013-09-10 00:32:00,63.6,60.0,30.14,WNW,286,0.0,0.0,88,0.00,,,0.00,VWS V14.01,2013-09-10 04:32:00,
2013-09-10 00:37:00,63.7,60.1,30.14,WNW,286,1.0,2.0,88,0.00,,,0.00,VWS V14.01,2013-09-10 04:37:00,
2013-09-10 00:42:00,63.7,60.1,30.14,WNW,286,0.0,0.0,88,0.00,,,0.00,VWS V14.01,2013-09-10 04:42:00,
2013-09-10 00:47:00,63.7,60.1,30.12,WNW,286,0.0,0.0,88,0.00,,,0.00,VWS V14.01,2013-09-10 04:47:00,
2013-09-10 00:52:00,63.8,60.2,30.12,West,271,5.0,5.0,88,0.00,,,0.00,VWS V14.01,2013-09-10 04:52:00,
2013-09-10 00:57:00,63.8,60.2,30.12,West,263,0.0,5.0,88,0.00,,,0.00,VWS V14.01,2013-09-10 04:57:00,
2013-09-10 01:02:00,63.8,60.2,30.12,WNW,285,0.0,0.0,88,0.00,,,0.00,VWS V14.01,2013-09-10 05:02:00,
2013-09-10 01:07:00,63.8,60.2,30.12,NNW,348,0.0,1.0,88,0.00,,,0.00,VWS V14.01,2013-09-10 05:07:00,
2013-09-10 01:12:00,63.9,60.6,30.12,WNW,296,3.0,5.0,89,0.00,,,0.00,VWS V14.01,2013-09-10 05:12:00,
2013-09-10 01:17:00,63.9,60.6,30.14,WNW,294,1.0,5.0,89,0.00,,,0.00,VWS V14.01,2013-09-10 05:17:00,
2013-09-10 01:22:00,63.9,60.6,30.14,WNW,294,0.0,0.0,89,0.00,,,0.00,VWS V14.01,2013-09-10 05:22:00,
2013-09-10 01:27:00,63.9,60.6,30.14,South,169,2.0,2.0,89,0.00,,,0.00,VWS V14.01,2013-09-10 05:27:00,
2013-09-10 01:32:00,64.0,60.7,30.14,South,169,0.0,0.0,89,0.00,,,0.00,VWS V14.01,2013-09-10 05:32:00,
2013-09-10 01:37:00,64.0,60.7,30.14,South,169,0.0,1.0,89,0.00,,,0.00,VWS V14.01,2013-09-10 05:37:00,
2013-09-10 01:42:00,64.0,60.7,30.14,South,169,0.0,0.0,89,0.00,,,0.00,VWS V14.01,2013-09-10 05:42:00,
2013-09-10 01:47:00,64.0,60.7,30.13,South,169,0.0,0.0,89,0.00,,,0.00,VWS V14.01,2013-09-10 05:47:00,
2013-09-10 01:52:00,63.9,60.6,30.13,South,169,0.0,0.0,89,0.00,,,0.00,VWS V14.01,2013-09-10 05:52:00,
2013-09-10 01:57:00,64.0,60.7,30.13,SSE,167,0.0,1.0,89,0.00,,,0.00,VWS V14.01,2013-09-10 05:57:00,
2013-09-10 02:02:00,64.0,60.7,30.13,SSE,167,0.0,0.0,89,0.00,,,0.00,VWS V14.01,2013-09-10 06:02:00,
2013-09-10 02:07:00,64.0,60.7,30.13,SSE,167,0.0,0.0,89,0.00,,,0.00,VWS V14.01,2013-09-10 06:07:00,
2013-09-10 02:12:00,64.0,60.7,30.13,SSE,167,0.0,0.0,89,0.00,,,0.00,VWS V14.01,2013-09-10 06:12:00,
2013-09-10 02:17:00,64.0,60.7,30.13,West,267,3.0,3.0,89,0.00,,,0.00,VWS V14.01,2013-09-10 06:17:00,
2013-09-10 02:22:00,64.0,61.0,30.13,ESE,105,0.0,1.0,90,0.00,,,0.00,VWS V14.01,2013-09-10 06:22:00,
2013-09-10 02:27:00,64.1,61.1,30.13,ENE,61,0.0,2.0,90,0.00,,,0.00,VWS V14.01,2013-09-10 06:27:00,
2013-09-10 02:32:00,64.1,61.1,30.13,ENE,61,0.0,0.0,90,0.00,,,0.00,VWS V14.01,2013-09-10 06:32:00,
2013-09-10 02:37:00,64.1,61.1,30.13,ENE,78,1.0,3.0,90,0.00,,,0.00,VWS V14.01,2013-09-10 06:37:00,
2013-09-10 02:42:00,64.1,61.1,30.13,ESE,109,0.0,0.0,90,0.00,,,0.00,VWS V14.01,2013-09-10 06:42:00,
2013-09-10 02:47:00,64.1,61.1,30.12,ESE,109,0.0,0.0,90,0.00,,,0.00,VWS V14.01,2013-09-10 06:47:00,
2013-09-10 02:52:00,64.1,61.1,30.12,ESE,109,0.0,0.0,90,0.00,,,0.00,VWS V14.01,2013-09-10 06:52:00,
2013-09-10 02:57:00,64.1,61.1,30.12,ESE,109,0.0,0.0,90,0.00,,,0.00,VWS V14.01,2013-09-10 06:57:00,
2013-09-10 03:02:00,64.1,61.1,30.12,SE,124,0.0,1.0,90,0.00,,,0.00,VWS V14.01,2013-09-10 07:02:00,
2013-09-10 03:07:00,64.1,61.4,30.12,SE,124,0.0,1.0,91,0.00,,,0.00,VWS V14.01,2013-09-10 07:07:00,
2013-09-10 03:12:00,64.1,61.4,30.12,SE,124,0.0,0.0,91,0.00,,,0.00,VWS V14.01,2013-09-10 07:12:00,
2013-09-10 03:17:00,64.0,61.3,30.12,SE,124,0.0,0.0,91,0.00,,,0.00,VWS V14.01,2013-09-10 07:17:00,
2013-09-10 03:22:00,64.1,61.4,30.12,SE,124,0.0,0.0,91,0.00,,,0.00,VWS V14.01,2013-09-10 07:22:00,
2013-09-10 03:27:00,64.1,61.4,30.12,WNW,289,1.0,5.0,91,0.00,,,0.00,VWS V14.01,2013-09-10 07:27:00,
2013-09-10 03:32:00,64.1,61.4,30.12,WNW,298,1.0,1.0,91,0.00,,,0.00,VWS V14.01,2013-09-10 07:32:00,
2013-09-10 03:37:00,64.1,61.4,30.12,WNW,297,0.0,2.0,91,0.00,,,0.00,VWS V14.01,2013-09-10 07:37:00,
2013-09-10 03:42:00,64.1,61.4,30.12,WNW,297,0.0,0.0,91,0.00,,,0.00,VWS V14.01,2013-09-10 07:42:00,
2013-09-10 03:47:00,64.1,61.4,30.11,West,260,5.0,5.0,91,0.00,,,0.00,VWS V14.01,2013-09-10 07:47:00,
2013-09-10 03:52:00,64.1,61.4,30.11,West,268,0.0,0.0,91,0.00,,,0.00,VWS V14.01,2013-09-10 07:52:00,
2013-09-10 03:57:00,64.2,61.5,30.11,West,268,0.0,1.0,91,0.00,,,0.00,VWS V14.01,2013-09-10 07:57:00,
2013-09-10 04:02:00,64.2,61.8,30.12,SW,228,0.0,0.0,92,0.00,,,0.00,VWS V14.01,2013-09-10 08:02:00,
2013-09-10 04:07:00,64.3,61.9,30.12,SW,228,0.0,0.0,92,0.00,,,0.00,VWS V14.01,2013-09-10 08:07:00,
2013-09-10 04:12:00,64.3,61.9,30.12,SW,228,0.0,0.0,92,0.00,,,0.00,VWS V14.01,2013-09-10 08:12:00,
2013-09-10 04:17:00,64.3,61.9,30.12,SW,228,0.0,0.0,92,0.00,,,0.00,VWS V14.01,2013-09-10 08:17:00,
2013-09-10 04:22:00,64.3,61.9,30.12,SE,127,0.0,2.0,92,0.00,,,0.00,VWS V14.01,2013-09-10 08:22:00,
2013-09-10 04:27:00,64.4,62.0,30.12,SE,127,0.0,2.0,92,0.00,,,0.00,VWS V14.01,2013-09-10 08:27:00,
2013-09-10 04:32:00,64.4,62.0,30.12,SE,127,0.0,0.0,92,0.00,,,0.00,VWS V14.01,2013-09-10 08:32:00,
2013-09-10 04:37:00,64.4,62.0,30.12,SE,127,0.0,0.0,92,0.00,,,0.00,VWS V14.01,2013-09-10 08:37:00,
2013-09-10 04:42:00,64.4,62.0,30.12,SE,128,0.0,0.0,92,0.00,,,0.00,VWS V14.01,2013-09-10 08:42:00,
2013-09-10 04:47:00,64.4,62.0,30.12,WSW,242,0.0,2.0,92,0.00,,,0.00,VWS V14.01,2013-09-10 08:47:00,
2013-09-10 04:52:00,64.5,62.4,30.12,WSW,242,0.0,0.0,93,0.00,,,0.00,VWS V14.01,2013-09-10 08:52:00,
2013-09-10 04:57:00,64.5,62.4,30.12,West,263,0.0,2.0,93,0.00,,,0.00,VWS V14.01,2013-09-10 08:57:00,
2013-09-10 05:02:00,64.6,62.5,30.12,West,263,0.0,0.0,93,0.00,,,0.00,VWS V14.01,2013-09-10 09:02:00,
2013-09-10 05:07:00,64.7,62.6,30.12,WNW,286,0.0,4.0,93,0.00,,,0.00,VWS V14.01,2013-09-10 09:07:00,
2013-09-10 05:12:00,64.8,62.7,30.12,WNW,286,0.0,0.0,93,0.00,,,0.00,VWS V14.01,2013-09-10 09:12:00,
2013-09-10 05:17:00,64.8,62.7,30.12,WNW,286,0.0,2.0,93,0.00,,,0.00,VWS V14.01,2013-09-10 09:17:00,
2013-09-10 05:22:00,64.8,62.7,30.12,WNW,286,0.0,0.0,93,0.00,,,0.00,VWS V14.01,2013-09-10 09:22:00,
2013-09-10 05:27:00,64.9,62.8,30.12,WNW,286,0.0,1.0,93,0.00,,,0.00,VWS V14.01,2013-09-10 09:27:00,
2013-09-10 05:32:00,64.9,62.8,30.12,WNW,286,0.0,1.0,93,0.00,,,0.00,VWS V14.01,2013-09-10 09:32:00,
2013-09-10 05:37:00,64.9,62.8,30.12,WNW,286,0.0,2.0,93,0.00,,,0.00,VWS V14.01,2013-09-10 09:37:00,
2013-09-10 05:42:00,65.0,62.9,30.12,WNW,286,0.0,0.0,93,0.00,,,0.00,VWS V14.01,2013-09-10 09:42:00,
2013-09-10 05:47:00,65.0,62.9,30.13,WNW,287,0.0,1.0,93,0.00,,,0.00,VWS V14.01,2013-09-10 09:47:00,
2013-09-10 05:52:00,65.1,63.0,30.13,WNW,287,0.0,0.0,93,0.00,,,0.00,VWS V14.01,2013-09-10 09:52:00,
2013-09-10 05:57:00,65.1,63.3,30.13,WNW,287,0.0,0.0,94,0.00,,,0.00,VWS V14.01,2013-09-10 09:57:00,
2013-09-10 06:02:00,65.2,63.4,30.12,WNW,287,0.0,0.0,94,0.00,,,0.00,VWS V14.01,2013-09-10 10:02:00,
2013-09-10 06:07:00,65.2,63.4,30.12,WNW,287,3.0,3.0,94,0.00,,,0.00,VWS V14.01,2013-09-10 10:07:00,
2013-09-10 06:12:00,65.3,63.5,30.12,WNW,287,0.0,0.0,94,0.00,,,0.00,VWS V14.01,2013-09-10 10:12:00,
2013-09-10 06:17:00,65.4,63.6,30.13,WNW,287,0.0,0.0,94,0.00,,,0.00,VWS V14.01,2013-09-10 10:17:00,
2013-09-10 06:22:00,65.4,63.6,30.13,WNW,287,0.0,0.0,94,0.00,,,0.00,VWS V14.01,2013-09-10 10:22:00,
2013-09-10 06:27:00,65.4,63.6,30.13,WNW,287,0.0,0.0,94,0.00,,,0.00,VWS V14.01,2013-09-10 10:27:00,
2013-09-10 06:32:00,65.5,63.7,30.13,West,275,0.0,1.0,94,0.00,,,0.00,VWS V14.01,2013-09-10 10:32:00,
2013-09-10 06:37:00,65.6,63.8,30.13,West,275,0.0,1.0,94,0.00,,,0.00,VWS V14.01,2013-09-10 10:37:00,
2013-09-10 06:42:00,65.6,63.8,30.13,West,275,1.0,3.0,94,0.00,,,0.00,VWS V14.01,2013-09-10 10:42:00,
2013-09-10 06:47:00,65.6,63.8,30.13,West,275,0.0,3.0,94,0.00,,,0.00,VWS V14.01,2013-09-10 10:47:00,
2013-09-10 06:52:00,65.7,63.9,30.13,West,275,0.0,0.0,94,0.00,,,0.00,VWS V14.01,2013-09-10 10:52:00,
2013-09-10 06:57:00,65.7,63.9,30.13,West,275,0.0,2.0,94,0.00,,,0.00,VWS V14.01,2013-09-10 10:57:00,
2013-09-10 07:02:00,65.7,63.9,30.13,West,275,0.0,1.0,94,0.00,,,0.00,VWS V14.01,2013-09-10 11:02:00,
2013-09-10 07:07:00,65.7,63.9,30.13,West,275,0.0,1.0,94,0.00,,,0.00,VWS V14.01,2013-09-10 11:07:00,
2013-09-10 07:12:00,65.8,64.0,30.13,West,275,0.0,0.0,94,0.00,,,0.00,VWS V14.01,2013-09-10 11:12:00,
2013-09-10 07:16:00,65.8,64.0,30.13,West,275,0.0,0.0,94,0.00,,,0.00,VWS V14.01,2013-09-10 11:16:00,
2013-09-10 07:21:00,65.8,64.0,30.13,East,81,0.0,0.0,94,0.00,,,0.00,VWS V14.01,2013-09-10 11:21:00,
2013-09-10 07:26:00,65.9,64.1,30.13,East,81,0.0,0.0,94,0.00,,,0.00,VWS V14.01,2013-09-10 11:26:00,
2013-09-10 07:31:00,66.0,64.2,30.12,East,81,0.0,0.0,94,0.00,,,0.00,VWS V14.01,2013-09-10 11:31:00,
2013-09-10 07:36:00,66.0,64.2,30.12,East,81,0.0,1.0,94,0.00,,,0.00,VWS V14.01,2013-09-10 11:36:00,
2013-09-10 07:41:00,66.0,64.5,30.12,East,84,0.0,0.0,95,0.00,,,0.00,VWS V14.01,2013-09-10 11:41:00,
2013-09-10 07:46:00,66.1,64.3,30.12,East,84,0.0,0.0,94,0.00,,,0.00,VWS V14.01,2013-09-10 11:46:00,
2013-09-10 07:51:00,66.1,64.6,30.12,ENE,63,0.0,0.0,95,0.00,,,0.00,VWS V14.01,2013-09-10 11:51:00,
2013-09-10 07:56:00,66.1,64.6,30.12,ENE,63,0.0,1.0,95,0.00,,,0.00,VWS V14.01,2013-09-10 11:56:00,
2013-09-10 08:01:00,66.2,64.7,30.12,West,275,0.0,0.0,95,0.00,,,0.00,VWS V14.01,2013-09-10 12:01:00,
2013-09-10 08:06:00,66.3,64.8,30.12,West,275,0.0,0.0,95,0.00,,,0.00,VWS V14.01,2013-09-10 12:06:00,
2013-09-10 08:11:00,66.3,64.8,30.12,West,275,0.0,0.0,95,0.00,,,0.00,VWS V14.01,2013-09-10 12:11:00,
2013-09-10 08:16:00,66.4,64.9,30.13,West,275,0.0,2.0,95,0.00,,,0.00,VWS V14.01,2013-09-10 12:16:00,
2013-09-10 08:21:00,66.4,64.9,30.13,West,275,0.0,0.0,95,0.00,,,0.00,VWS V14.01,2013-09-10 12:21:00,
2013-09-10 08:26:00,66.5,65.0,30.13,West,275,0.0,0.0,95,0.00,,,0.00,VWS V14.01,2013-09-10 12:26:00,
2013-09-10 08:31:00,66.6,65.1,30.13,NE,38,0.0,0.0,95,0.00,,,0.00,VWS V14.01,2013-09-10 12:31:00,
2013-09-10 08:36:00,66.7,65.2,30.13,SW,225,0.0,3.0,95,0.00,,,0.00,VWS V14.01,2013-09-10 12:36:00,
2013-09-10 08:41:00,66.7,65.2,30.13,SW,225,0.0,0.0,95,0.00,,,0.00,VWS V14.01,2013-09-10 12:41:00,
2013-09-10 08:46:00,66.8,65.3,30.13,SW,233,0.0,4.0,95,0.00,,,0.00,VWS V14.01,2013-09-10 12:46:00,
2013-09-10 08:51:00,66.9,65.4,30.13,West,274,4.0,5.0,95,0.00,,,0.00,VWS V14.01,2013-09-10 12:51:00,
2013-09-10 08:56:00,67.1,65.6,30.13,West,277,0.0,5.0,95,0.00,,,0.00,VWS V14.01,2013-09-10 12:56:00,
2013-09-10 09:01:00,67.2,65.7,30.14,NW,307,3.0,3.0,95,0.00,,,0.00,VWS V14.01,2013-09-10 13:01:00,
2013-09-10 09:06:00,67.4,65.9,30.14,WNW,297,2.0,4.0,95,0.00,,,0.00,VWS V14.01,2013-09-10 13:06:00,
2013-09-10 09:11:00,67.6,66.1,30.14,West,270,0.0,1.0,95,0.00,,,0.00,VWS V14.01,2013-09-10 13:11:00,
2013-09-10 09:16:00,67.7,66.2,30.14,West,278,1.0,3.0,95,0.00,,,0.00,VWS V14.01,2013-09-10 13:16:00,
2013-09-10 09:21:00,67.9,66.4,30.14,North,355,0.0,0.0,95,0.00,,,0.00,VWS V14.01,2013-09-10 13:21:00,
2013-09-10 09:26:00,68.0,66.5,30.14,WNW,291,0.0,4.0,95,0.00,,,0.00,VWS V14.01,2013-09-10 13:26:00,
2013-09-10 09:31:00,68.1,66.6,30.15,WNW,284,4.0,6.0,95,0.00,,,0.00,VWS V14.01,2013-09-10 13:31:00,
2013-09-10 09:36:00,68.2,66.7,30.15,West,277,0.0,6.0,95,0.00,,,0.00,VWS V14.01,2013-09-10 13:36:00,
2013-09-10 09:41:00,68.3,66.8,30.15,WNW,286,0.0,0.0,95,0.00,,,0.00,VWS V14.01,2013-09-10 13:41:00,
2013-09-10 09:46:00,68.4,66.9,30.14,West,264,0.0,8.0,95,0.00,,,0.00,VWS V14.01,2013-09-10 13:46:00,
2013-09-10 09:51:00,68.5,67.0,30.14,West,277,7.0,7.0,95,0.00,,,0.00,VWS V14.01,2013-09-10 13:51:00,
2013-09-10 09:56:00,68.7,67.2,30.14,West,273,2.0,7.0,95,0.00,,,0.00,VWS V14.01,2013-09-10 13:56:00,
2013-09-10 10:01:00,68.8,67.3,30.14,WNW,292,1.0,1.0,95,0.00,,,0.00,VWS V14.01,2013-09-10 14:01:00,
2013-09-10 10:06:00,68.9,67.4,30.14,WNW,283,0.0,9.0,95,0.00,,,0.00,VWS V14.01,2013-09-10 14:06:00,
2013-09-10 10:11:00,69.1,67.6,30.14,West,273,0.0,3.0,95,0.00,,,0.00,VWS V14.01,2013-09-10 14:11:00,
2013-09-10 10:16:00,69.2,67.7,30.14,West,272,2.0,7.0,95,0.00,,,0.00,VWS V14.01,2013-09-10 14:16:00,
2013-09-10 10:21:00,69.4,67.6,30.14,WNW,298,0.0,1.0,94,0.00,,,0.00,VWS V14.01,2013-09-10 14:21:00,
2013-09-10 10:26:00,69.4,67.6,30.14,WSW,254,0.0,5.0,94,0.00,,,0.00,VWS V14.01,2013-09-10 14:26:00,
2013-09-10 10:31:00,69.5,67.7,30.15,West,261,0.0,0.0,94,0.00,,,0.00,VWS V14.01,2013-09-10 14:31:00,
2013-09-10 10:36:00,69.5,67.7,30.15,WNW,282,0.0,4.0,94,0.00,,,0.00,VWS V14.01,2013-09-10 14:36:00,
2013-09-10 10:41:00,69.6,67.8,30.15,West,270,0.0,0.0,94,0.00,,,0.00,VWS V14.01,2013-09-10 14:41:00,
2013-09-10 10:46:00,69.7,67.9,30.14,West,276,0.0,7.0,94,0.00,,,0.00,VWS V14.01,2013-09-10 14:46:00,
2013-09-10 10:51:00,69.8,68.0,30.14,West,273,0.0,0.0,94,0.00,,,0.00,VWS V14.01,2013-09-10 14:51:00,
2013-09-10 10:56:00,70.0,67.9,30.14,West,275,4.0,4.0,93,0.00,,,0.00,VWS V14.01,2013-09-10 14:56:00,
2013-09-10 11:01:00,70.2,68.1,30.14,West,265,1.0,2.0,93,0.00,,,0.00,VWS V14.01,2013-09-10 15:01:00,
2013-09-10 11:06:00,70.4,68.3,30.14,West,265,1.0,3.0,93,0.00,,,0.00,VWS V14.01,2013-09-10 15:06:00,
2013-09-10 11:11:00,70.6,68.5,30.14,WSW,257,4.0,7.0,93,0.00,,,0.00,VWS V14.01,2013-09-10 15:11:00,
2013-09-10 11:16:00,70.9,68.8,30.14,West,273,0.0,7.0,93,0.00,,,0.00,VWS V14.01,2013-09-10 15:16:00,
2013-09-10 11:21:00,71.2,68.8,30.14,West,271,0.0,2.0,92,0.00,,,0.00,VWS V14.01,2013-09-10 15:21:00,
2013-09-10 11:26:00,71.5,69.1,30.14,West,265,0.0,5.0,92,0.00,,,0.00,VWS V14.01,2013-09-10 15:26:00,
2013-09-10 11:31:00,71.7,69.3,30.12,WSW,256,1.0,1.0,92,0.00,,,0.00,VWS V14.01,2013-09-10 15:31:00,
2013-09-10 11:36:00,71.9,69.1,30.12,WSW,250,0.0,4.0,91,0.00,,,0.00,VWS V14.01,2013-09-10 15:36:00,
2013-09-10 11:41:00,72.3,69.2,30.12,WNW,282,0.0,0.0,90,0.00,,,0.00,VWS V14.01,2013-09-10 15:41:00,
2013-09-10 11:46:00,72.6,69.5,30.11,West,260,2.0,5.0,90,0.00,,,0.00,VWS V14.01,2013-09-10 15:46:00,
2013-09-10 11:51:00,73.1,69.7,30.11,West,279,1.0,1.0,89,0.00,,,0.00,VWS V14.01,2013-09-10 15:51:00,
2013-09-10 11:56:00,73.5,70.1,30.11,WNW,287,0.0,7.0,89,0.00,,,0.00,VWS V14.01,2013-09-10 15:56:00,
2013-09-10 12:01:00,74.2,70.4,30.11,WNW,284,3.0,7.0,88,0.00,,,0.00,VWS V14.01,2013-09-10 16:01:00,
2013-09-10 12:06:00,74.6,70.5,30.11,NW,312,0.0,6.0,87,0.00,,,0.00,VWS V14.01,2013-09-10 16:06:00,
2013-09-10 12:11:00,75.1,70.6,30.11,WNW,289,1.0,1.0,86,0.00,,,0.00,VWS V14.01,2013-09-10 16:11:00,
2013-09-10 12:16:00,75.7,71.2,30.12,West,273,2.0,4.0,86,0.00,,,0.00,VWS V14.01,2013-09-10 16:16:00,
2013-09-10 12:21:00,76.3,71.1,30.12,West,273,0.0,5.0,84,0.00,,,0.00,VWS V14.01,2013-09-10 16:21:00,
2013-09-10 12:26:00,76.8,71.6,30.12,NW,312,0.0,3.0,84,0.00,,,0.00,VWS V14.01,2013-09-10 16:26:00,
2013-09-10 12:31:00,77.2,71.6,30.12,NW,311,0.0,0.0,83,0.00,,,0.00,VWS V14.01,2013-09-10 16:31:00,
2013-09-10 12:36:00,77.6,71.7,30.12,NW,311,3.0,3.0,82,0.00,,,0.00,VWS V14.01,2013-09-10 16:36:00,
2013-09-10 12:41:00,77.6,71.3,30.12,WNW,291,0.0,6.0,81,0.00,,,0.00,VWS V14.01,2013-09-10 16:41:00,
2013-09-10 12:46:00,77.7,71.4,30.11,WNW,287,1.0,1.0,81,0.00,,,0.00,VWS V14.01,2013-09-10 16:46:00,
2013-09-10 12:51:00,78.0,71.7,30.11,WNW,287,7.0,7.0,81,0.00,,,0.00,VWS V14.01,2013-09-10 16:51:00,
2013-09-10 12:56:00,77.9,71.2,30.11,West,271,1.0,7.0,80,0.00,,,0.00,VWS V14.01,2013-09-10 16:56:00,
2013-09-10 13:01:00,78.0,71.3,30.11,West,277,0.0,0.0,80,0.00,,,0.00,VWS V14.01,2013-09-10 17:01:00,
2013-09-10 13:06:00,78.0,71.0,30.11,WNW,286,0.0,6.0,79,0.00,,,0.00,VWS V14.01,2013-09-10 17:06:00,
2013-09-10 13:11:00,78.1,71.4,30.11,WNW,302,2.0,6.0,80,0.00,,,0.00,VWS V14.01,2013-09-10 17:11:00,
2013-09-10 13:16:00,78.2,71.5,30.10,WNW,296,3.0,4.0,80,0.00,,,0.00,VWS V14.01,2013-09-10 17:16:00,
2013-09-10 13:21:00,78.3,71.6,30.10,West,272,2.0,2.0,80,0.00,,,0.00,VWS V14.01,2013-09-10 17:21:00,
2013-09-10 13:26:00,78.4,71.7,30.10,West,260,3.0,6.0,80,0.00,,,0.00,VWS V14.01,2013-09-10 17:26:00,
2013-09-10 13:31:00,78.6,71.9,30.09,NW,316,1.0,1.0,80,0.00,,,0.00,VWS V14.01,2013-09-10 17:31:00,
2013-09-10 13:36:00,78.6,71.6,30.09,NW,316,0.0,1.0,79,0.00,,,0.00,VWS V14.01,2013-09-10 17:36:00,
2013-09-10 13:41:00,78.7,72.0,30.09,WNW,301,0.0,4.0,80,0.00,,,0.00,VWS V14.01,2013-09-10 17:41:00,
2013-09-10 13:46:00,78.7,72.0,30.08,NNW,328,0.0,1.0,80,0.00,,,0.00,VWS V14.01,2013-09-10 17:46:00,
2013-09-10 13:51:00,78.8,72.1,30.08,West,279,3.0,5.0,80,0.00,,,0.00,VWS V14.01,2013-09-10 17:51:00,
2013-09-10 13:56:00,78.9,72.2,30.08,WNW,287,0.0,3.0,80,0.00,,,0.00,VWS V14.01,2013-09-10 17:56:00,
2013-09-10 14:01:00,78.9,72.2,30.08,West,269,3.0,4.0,80,0.00,,,0.00,VWS V14.01,2013-09-10 18:01:00,
2013-09-10 14:06:00,79.0,72.3,30.08,SE,144,2.0,3.0,80,0.00,,,0.00,VWS V14.01,2013-09-10 18:06:00,
2013-09-10 14:11:00,79.1,72.4,30.08,WSW,248,2.0,3.0,80,0.00,,,0.00,VWS V14.01,2013-09-10 18:11:00,
2013-09-10 14:16:00,79.2,72.5,30.07,ESE,112,4.0,6.0,80,0.00,,,0.00,VWS V14.01,2013-09-10 18:16:00,
2013-09-10 14:21:00,79.3,72.6,30.07,WSW,251,5.0,6.0,80,0.00,,,0.00,VWS V14.01,2013-09-10 18:21:00,
2013-09-10 14:26:00,79.4,72.7,30.07,SE,145,0.0,6.0,80,0.00,,,0.00,VWS V14.01,2013-09-10 18:26:00,
2013-09-10 14:31:00,79.5,72.8,30.07,NNE,30,0.0,8.0,80,0.00,,,0.00,VWS V14.01,2013-09-10 18:31:00,
2013-09-10 14:36:00,79.6,72.5,30.07,WNW,289,0.0,3.0,79,0.00,,,0.00,VWS V14.01,2013-09-10 18:36:00,
2013-09-10 14:41:00,79.7,73.0,30.07,WNW,284,9.0,9.0,80,0.00,,,0.00,VWS V14.01,2013-09-10 18:41:00,
2013-09-10 14:46:00,79.8,72.7,30.07,West,265,3.0,9.0,79,0.00,,,0.00,VWS V14.01,2013-09-10 18:46:00,
2013-09-10 14:51:00,80.0,72.5,30.07,WNW,284,4.0,9.0,78,0.00,,,0.00,VWS V14.01,2013-09-10 18:51:00,
2013-09-10 14:56:00,80.1,73.0,30.07,WNW,288,3.0,4.0,79,0.00,,,0.00,VWS V14.01,2013-09-10 18:56:00,
2013-09-10 15:01:00,80.3,73.6,30.07,WNW,282,1.0,4.0,80,0.00,,,0.00,VWS V14.01,2013-09-10 19:01:00,
2013-09-10 15:06:00,80.5,73.4,30.07,West,275,1.0,5.0,79,0.00,,,0.00,VWS V14.01,2013-09-10 19:06:00,
2013-09-10 15:11:00,80.7,73.6,30.07,WNW,286,0.0,8.0,79,0.00,,,0.00,VWS V14.01,2013-09-10 19:11:00,
2013-09-10 15:16:00,80.8,73.3,30.07,WNW,282,1.0,4.0,78,0.00,,,0.00,VWS V14.01,2013-09-10 19:16:00,
2013-09-10 15:21:00,80.9,73.4,30.07,WNW,286,0.0,8.0,78,0.00,,,0.00,VWS V14.01,2013-09-10 19:21:00,
2013-09-10 15:26:00,81.1,73.6,30.07,West,263,5.0,7.0,78,0.00,,,0.00,VWS V14.01,2013-09-10 19:26:00,
2013-09-10 15:31:00,81.2,73.7,30.07,West,274,0.0,7.0,78,0.00,,,0.00,VWS V14.01,2013-09-10 19:31:00,
2013-09-10 15:36:00,81.3,73.4,30.07,WNW,286,0.0,9.0,77,0.00,,,0.00,VWS V14.01,2013-09-10 19:36:00,
2013-09-10 15:41:00,81.4,73.5,30.07,West,267,2.0,9.0,77,0.00,,,0.00,VWS V14.01,2013-09-10 19:41:00,
2013-09-10 15:46:00,81.5,73.2,30.07,WNW,285,0.0,7.0,76,0.00,,,0.00,VWS V14.01,2013-09-10 19:46:00,
2013-09-10 15:51:00,81.6,73.7,30.07,WNW,289,0.0,7.0,77,0.00,,,0.00,VWS V14.01,2013-09-10 19:51:00,
2013-09-10 15:56:00,81.8,73.9,30.07,West,272,1.0,6.0,77,0.00,,,0.00,VWS V14.01,2013-09-10 19:56:00,
2013-09-10 16:01:00,81.9,74.0,30.07,West,276,0.0,7.0,77,0.00,,,0.00,VWS V14.01,2013-09-10 20:01:00,
2013-09-10 16:06:00,82.0,73.7,30.07,West,263,2.0,7.0,76,0.00,,,0.00,VWS V14.01,2013-09-10 20:06:00,
2013-09-10 16:11:00,82.2,73.9,30.07,West,274,1.0,7.0,76,0.00,,,0.00,VWS V14.01,2013-09-10 20:11:00,
2013-09-10 16:16:00,82.3,74.0,30.06,WNW,294,1.0,3.0,76,0.00,,,0.00,VWS V14.01,2013-09-10 20:16:00,
2013-09-10 16:21:00,82.4,74.1,30.06,West,270,0.0,4.0,76,0.00,,,0.00,VWS V14.01,2013-09-10 20:21:00,
2013-09-10 16:26:00,82.7,74.0,30.06,West,266,1.0,6.0,75,0.00,,,0.00,VWS V14.01,2013-09-10 20:26:00,
2013-09-10 16:31:00,82.8,74.1,30.06,NW,309,0.0,6.0,75,0.00,,,0.00,VWS V14.01,2013-09-10 20:31:00,
2013-09-10 16:36:00,83.0,74.3,30.06,West,281,0.0,4.0,75,0.00,,,0.00,VWS V14.01,2013-09-10 20:36:00,
2013-09-10 16:41:00,83.2,74.1,30.06,WNW,299,3.0,11.0,74,0.00,,,0.00,VWS V14.01,2013-09-10 20:41:00,
2013-09-10 16:46:00,83.4,74.2,30.06,WSW,246,0.0,9.0,74,0.00,,,0.00,VWS V14.01,2013-09-10 20:46:00,
2013-09-10 16:51:00,83.6,74.4,30.06,West,271,0.0,9.0,74,0.00,,,0.00,VWS V14.01,2013-09-10 20:51:00,
2013-09-10 16:56:00,83.7,74.5,30.06,West,275,2.0,5.0,74,0.00,,,0.00,VWS V14.01,2013-09-10 20:56:00,
2013-09-10 17:01:00,83.8,74.2,30.06,West,263,0.0,6.0,73,0.00,,,0.00,VWS V14.01,2013-09-10 21:01:00,
2013-09-10 17:06:00,83.9,74.3,30.06,West,271,0.0,4.0,73,0.00,,,0.00,VWS V14.01,2013-09-10 21:06:00,
2013-09-10 17:11:00,83.8,74.2,30.06,West,271,5.0,7.0,73,0.00,,,0.00,VWS V14.01,2013-09-10 21:11:00,
2013-09-10 17:16:00,83.7,74.1,30.06,West,280,2.0,6.0,73,0.00,,,0.00,VWS V14.01,2013-09-10 21:16:00,
2013-09-10 17:21:00,83.6,74.4,30.06,WNW,286,1.0,6.0,74,0.00,,,0.00,VWS V14.01,2013-09-10 21:21:00,
2013-09-10 17:26:00,83.6,74.4,30.06,West,277,0.0,9.0,74,0.00,,,0.00,VWS V14.01,2013-09-10 21:26:00,
2013-09-10 17:31:00,83.6,74.4,30.05,WSW,252,0.0,9.0,74,0.00,,,0.00,VWS V14.01,2013-09-10 21:31:00,
2013-09-10 17:36:00,83.6,74.4,30.05,WSW,238,0.0,5.0,74,0.00,,,0.00,VWS V14.01,2013-09-10 21:36:00,
2013-09-10 17:41:00,83.5,74.3,30.05,WSW,247,0.0,5.0,74,0.00,,,0.00,VWS V14.01,2013-09-10 21:41:00,
2013-09-10 17:46:00,83.5,74.3,30.06,WSW,247,1.0,1.0,74,0.00,,,0.00,VWS V14.01,2013-09-10 21:46:00,
2013-09-10 17:51:00,83.3,74.6,30.06,West,276,3.0,7.0,75,0.00,,,0.00,VWS V14.01,2013-09-10 21:51:00,
2013-09-10 17:56:00,83.1,74.4,30.06,WNW,300,1.0,1.0,75,0.00,,,0.00,VWS V14.01,2013-09-10 21:56:00,
2013-09-10 18:01:00,82.9,74.2,30.06,West,259,0.0,5.0,75,0.00,,,0.00,VWS V14.01,2013-09-10 22:01:00,
2013-09-10 18:06:00,82.7,74.0,30.06,NW,315,0.0,3.0,75,0.00,,,0.00,VWS V14.01,2013-09-10 22:06:00,
2013-09-10 18:11:00,82.5,74.2,30.06,West,279,0.0,5.0,76,0.00,,,0.00,VWS V14.01,2013-09-10 22:11:00,
2013-09-10 18:16:00,82.2,73.9,30.06,West,281,0.0,5.0,76,0.00,,,0.00,VWS V14.01,2013-09-10 22:16:00,
2013-09-10 18:21:00,82.0,74.1,30.06,West,280,0.0,5.0,77,0.00,,,0.00,VWS V14.01,2013-09-10 22:21:00,
2013-09-10 18:26:00,81.9,74.0,30.06,West,281,0.0,0.0,77,0.00,,,0.00,VWS V14.01,2013-09-10 22:26:00,
2013-09-10 18:31:00,81.7,74.2,30.06,West,280,0.0,1.0,78,0.00,,,0.00,VWS V14.01,2013-09-10 22:31:00,
2013-09-10 18:36:00,81.6,74.1,30.06,West,280,0.0,0.0,78,0.00,,,0.00,VWS V14.01,2013-09-10 22:36:00,
2013-09-10 18:41:00,81.4,74.3,30.06,West,280,0.0,0.0,79,0.00,,,0.00,VWS V14.01,2013-09-10 22:41:00,
2013-09-10 18:46:00,81.2,74.1,30.06,West,280,0.0,0.0,79,0.00,,,0.00,VWS V14.01,2013-09-10 22:46:00,
2013-09-10 18:51:00,81.0,73.9,30.06,West,280,0.0,0.0,79,0.00,,,0.00,VWS V14.01,2013-09-10 22:51:00,
2013-09-10 18:56:00,80.8,74.1,30.06,West,280,0.0,0.0,80,0.00,,,0.00,VWS V14.01,2013-09-10 22:56:00,
2013-09-10 19:01:00,80.6,73.9,30.07,West,280,0.0,0.0,80,0.00,,,0.00,VWS V14.01,2013-09-10 23:01:00,
2013-09-10 19:06:00,80.4,74.0,30.07,West,280,0.0,0.0,81,0.00,,,0.00,VWS V14.01,2013-09-10 23:06:00,
2013-09-10 19:11:00,80.1,73.8,30.07,West,280,0.0,0.0,81,0.00,,,0.00,VWS V14.01,2013-09-10 23:11:00,
2013-09-10 19:16:00,79.9,73.6,30.07,West,280,0.0,0.0,81,0.00,,,0.00,VWS V14.01,2013-09-10 23:16:00,
2013-09-10 19:21:00,79.6,73.6,30.07,West,280,0.0,2.0,82,0.00,,,0.00,VWS V14.01,2013-09-10 23:21:00,
2013-09-10 19:26:00,79.4,73.4,30.07,West,280,0.0,0.0,82,0.00,,,0.00,VWS V14.01,2013-09-10 23:26:00,
2013-09-10 19:31:00,79.2,73.2,30.07,West,280,0.0,0.0,82,0.00,,,0.00,VWS V14.01,2013-09-10 23:31:00,
2013-09-10 19:36:00,79.0,73.4,30.07,West,281,0.0,1.0,83,0.00,,,0.00,VWS V14.01,2013-09-10 23:36:00,
2013-09-10 19:41:00,78.8,73.2,30.07,West,281,0.0,1.0,83,0.00,,,0.00,VWS V14.01,2013-09-10 23:41:00,
2013-09-10 19:46:00,78.6,73.4,30.07,West,281,0.0,0.0,84,0.00,,,0.00,VWS V14.01,2013-09-10 23:46:00,
2013-09-10 19:51:00,78.4,73.2,30.07,West,281,0.0,0.0,84,0.00,,,0.00,VWS V14.01,2013-09-10 23:51:00,
2013-09-10 19:57:00,78.1,72.9,30.07,West,281,0.0,0.0,84,0.00,,,0.00,VWS V14.01,2013-09-10 23:57:00,
2013-09-10 20:02:00,77.9,73.0,30.08,West,281,0.0,0.0,85,0.00,,,0.00,VWS V14.01,2013-09-11 00:02:00,
2013-09-10 20:07:00,77.8,72.9,30.08,West,281,0.0,0.0,85,0.00,,,0.00,VWS V14.01,2013-09-11 00:07:00,
2013-09-10 20:12:00,77.6,72.7,30.08,West,281,0.0,0.0,85,0.00,,,0.00,VWS V14.01,2013-09-11 00:12:00,
2013-09-10 20:17:00,77.4,72.9,30.08,West,281,0.0,0.0,86,0.00,,,0.00,VWS V14.01,2013-09-11 00:17:00,
2013-09-10 20:22:00,77.3,72.8,30.08,West,281,0.0,0.0,86,0.00,,,0.00,VWS V14.01,2013-09-11 00:22:00,
2013-09-10 20:27:00,77.1,72.6,30.08,West,281,0.0,1.0,86,0.00,,,0.00,VWS V14.01,2013-09-11 00:27:00,
2013-09-10 20:32:00,76.9,72.7,30.08,West,281,0.0,0.0,87,0.00,,,0.00,VWS V14.01,2013-09-11 00:32:00,
2013-09-10 20:37:00,76.7,72.5,30.08,West,281,0.0,0.0,87,0.00,,,0.00,VWS V14.01,2013-09-11 00:37:00,
2013-09-10 20:42:00,76.5,72.7,30.08,West,281,0.0,0.0,88,0.00,,,0.00,VWS V14.01,2013-09-11 00:42:00,
2013-09-10 20:47:00,76.4,72.6,30.08,West,280,0.0,3.0,88,0.00,,,0.00,VWS V14.01,2013-09-11 00:47:00,
2013-09-10 20:51:00,76.3,72.5,30.08,West,281,0.0,1.0,88,0.00,,,0.00,VWS V14.01,2013-09-11 00:51:00,
2013-09-10 20:56:00,76.1,72.3,30.08,WNW,301,0.0,4.0,88,0.00,,,0.00,VWS V14.01,2013-09-11 00:56:00,
2013-09-10 21:01:00,76.0,72.2,30.08,WNW,301,0.0,0.0,88,0.00,,,0.00,VWS V14.01,2013-09-11 01:01:00,
2013-09-10 21:06:00,75.9,72.4,30.08,WNW,300,0.0,1.0,89,0.00,,,0.00,VWS V14.01,2013-09-11 01:06:00,
2013-09-10 21:11:00,75.9,72.4,30.08,NW,309,0.0,0.0,89,0.00,,,0.00,VWS V14.01,2013-09-11 01:11:00,
2013-09-10 21:16:00,75.8,72.3,30.08,NW,307,1.0,3.0,89,0.00,,,0.00,VWS V14.01,2013-09-11 01:16:00,
2013-09-10 21:21:00,75.9,72.4,30.08,West,272,0.0,2.0,89,0.00,,,0.00,VWS V14.01,2013-09-11 01:21:00,
2013-09-10 21:26:00,76.0,72.5,30.08,West,276,4.0,5.0,89,0.00,,,0.00,VWS V14.01,2013-09-11 01:26:00,
2013-09-10 21:31:00,76.0,72.5,30.08,West,275,0.0,0.0,89,0.00,,,0.00,VWS V14.01,2013-09-11 01:31:00,
2013-09-10 21:36:00,76.0,72.5,30.08,West,279,1.0,2.0,89,0.00,,,0.00,VWS V14.01,2013-09-11 01:36:00,
2013-09-10 21:41:00,76.0,72.2,30.08,West,278,0.0,0.0,88,0.00,,,0.00,VWS V14.01,2013-09-11 01:41:00,
2013-09-10 21:46:00,76.0,72.2,30.08,West,278,0.0,1.0,88,0.00,,,0.00,VWS V14.01,2013-09-11 01:46:00,
2013-09-10 21:51:00,76.0,72.2,30.08,West,278,0.0,0.0,88,0.00,,,0.00,VWS V14.01,2013-09-11 01:51:00,
2013-09-10 21:56:00,76.0,72.2,30.08,West,281,0.0,2.0,88,0.00,,,0.00,VWS V14.01,2013-09-11 01:56:00,
2013-09-10 22:01:00,76.0,72.2,30.09,WNW,282,1.0,3.0,88,0.00,,,0.00,VWS V14.01,2013-09-11 02:01:00,
2013-09-10 22:06:00,76.0,72.2,30.09,WNW,284,1.0,3.0,88,0.00,,,0.00,VWS V14.01,2013-09-11 02:06:00,
2013-09-10 22:11:00,76.0,72.2,30.09,WNW,299,0.0,0.0,88,0.00,,,0.00,VWS V14.01,2013-09-11 02:11:00,
2013-09-10 22:16:00,76.0,72.2,30.09,WNW,282,0.0,4.0,88,0.00,,,0.00,VWS V14.01,2013-09-11 02:16:00,
2013-09-10 22:21:00,76.0,72.2,30.09,West,275,0.0,0.0,88,0.00,,,0.00,VWS V14.01,2013-09-11 02:21:00,
2013-09-10 22:26:00,75.9,72.1,30.09,WNW,302,0.0,4.0,88,0.00,,,0.00,VWS V14.01,2013-09-11 02:26:00,
2013-09-10 22:31:00,75.9,72.1,30.09,WNW,302,0.0,0.0,88,0.00,,,0.00,VWS V14.01,2013-09-11 02:31:00,
2013-09-10 22:36:00,75.9,72.1,30.09,West,278,0.0,4.0,88,0.00,,,0.00,VWS V14.01,2013-09-11 02:36:00,
2013-09-10 22:41:00,76.0,72.2,30.09,West,278,0.0,0.0,88,0.00,,,0.00,VWS V14.01,2013-09-11 02:41:00,
2013-09-10 22:46:00,76.0,71.9,30.09,West,278,0.0,2.0,87,0.00,,,0.00,VWS V14.01,2013-09-11 02:46:00,
2013-09-10 22:51:00,76.0,71.9,30.09,West,279,0.0,0.0,87,0.00,,,0.00,VWS V14.01,2013-09-11 02:51:00,
2013-09-10 22:56:00,76.0,71.9,30.09,West,279,0.0,1.0,87,0.00,,,0.00,VWS V14.01,2013-09-11 02:56:00,
2013-09-10 23:01:00,75.9,71.8,30.09,West,279,0.0,0.0,87,0.00,,,0.00,VWS V14.01,2013-09-11 03:01:00,
2013-09-10 23:06:00,75.9,71.8,30.09,West,274,2.0,4.0,87,0.00,,,0.00,VWS V14.01,2013-09-11 03:06:00,
2013-09-10 23:11:00,75.9,71.8,30.09,West,275,0.0,0.0,87,0.00,,,0.00,VWS V14.01,2013-09-11 03:11:00,
2013-09-10 23:16:00,75.8,71.7,30.09,West,274,0.0,2.0,87,0.00,,,0.00,VWS V14.01,2013-09-11 03:16:00,
2013-09-10 23:21:00,75.8,71.7,30.09,West,274,0.0,0.0,87,0.00,,,0.00,VWS V14.01,2013-09-11 03:21:00,
2013-09-10 23:26:00,75.8,72.0,30.09,NNW,327,1.0,2.0,88,0.00,,,0.00,VWS V14.01,2013-09-11 03:26:00,
2013-09-10 23:31:00,75.8,72.0,30.09,West,277,1.0,1.0,88,0.00,,,0.00,VWS V14.01,2013-09-11 03:31:00,
2013-09-10 23:36:00,75.7,71.9,30.09,West,274,0.0,3.0,88,0.00,,,0.00,VWS V14.01,2013-09-11 03:36:00,
2013-09-10 23:41:00,75.7,71.9,30.09,West,274,0.0,0.0,88,0.00,,,0.00,VWS V14.01,2013-09-11 03:41:00,
2013-09-10 23:46:00,75.7,71.9,30.09,West,272,0.0,5.0,88,0.00,,,0.00,VWS V14.01,2013-09-11 03:46:00,
2013-09-10 23:51:00,75.6,71.8,30.09,WNW,290,0.0,0.0,88,0.00,,,0.00,VWS V14.01,2013-09-11 03:51:00,
2013-09-10 23:56:00,75.5,71.7,30.09,WNW,290,0.0,3.0,88,0.00,,,0.00,VWS V14.01,2013-09-11 03:56:00,